This is the latest recevied weather packets stored in our database for station/object DO7ZT-10. If no packets are shown the sender has not sent any weather packets the latest 10 day(s).
| Time | Temp. | Humidity | Pressure | Rain* | Wind** | Luminosity | Snow |
|---|---|---|---|---|---|---|---|
| 1777725195 | 26.67° C | 21% | 1021.4 hPa | - | - | - | - |
| 1777724295 | 26.67° C | 21% | 1021.7 hPa | - | - | - | - |
| 1777723395 | 26.67° C | 21% | 1021.8 hPa | - | - | - | - |
| 1777722495 | 26.11° C | 21% | 1022 hPa | - | - | - | - |
| 1777721595 | 25.56° C | 23% | 1022.2 hPa | - | - | - | - |
| 1777720695 | 25° C | 23% | 1022.4 hPa | - | - | - | - |
| 1777719795 | 25.56° C | 22% | 1022.6 hPa | - | - | - | - |
| 1777718895 | 25° C | 20% | 1022.7 hPa | - | - | - | - |
| 1777717994 | 25° C | 20% | 1023 hPa | - | - | - | - |
| 1777717094 | 25° C | 21% | 1023.1 hPa | - | - | - | - |
| 1777716194 | 25° C | 19% | 1023.4 hPa | - | - | - | - |
| 1777715294 | 24.44° C | 22% | 1023.6 hPa | - | - | - | - |
| 1777714394 | 23.89° C | 24% | 1023.6 hPa | - | - | - | - |
| 1777713494 | 23.89° C | 23% | 1023.7 hPa | - | - | - | - |
| 1777712594 | 23.33° C | 25% | 1023.8 hPa | - | - | - | - |
| 1777711694 | 23.33° C | 25% | 1023.9 hPa | - | - | - | - |
| 1777710794 | 22.78° C | 28% | 1024 hPa | - | - | - | - |
| 1777709894 | 22.22° C | 29% | 1024.1 hPa | - | - | - | - |
| 1777708994 | 21.11° C | 32% | 1024.2 hPa | - | - | - | - |
| 1777708094 | 21.11° C | 35% | 1024.2 hPa | - | - | - | - |
| 1777707194 | 20° C | 34% | 1024.4 hPa | - | - | - | - |
| 1777706294 | 19.44° C | 37% | 1024.3 hPa | - | - | - | - |
| 1777705394 | 18.33° C | 36% | 1024.3 hPa | - | - | - | - |
| 1777704493 | 17.78° C | 39% | 1024.3 hPa | - | - | - | - |
| 1777703593 | 17.78° C | 42% | 1024.4 hPa | - | - | - | - |
* Rain since midnight (hover to see other rain measurements)
** Current wind speed in m/s (hover to see current wind gust speed)